Regional Weather Roundup
Issued by NWS

Home | Current Version | Previous Version | Graphics & Text | Print | Product List | Glossary On
Versions: 1 2 3 4 5 6 7 8 9 10 11 12 13 14 15 16 17 18 19 20 21 22 23 24 25 26 27 28 29 30 31 32 33 34 35 36 37 38 39 40 41 42 43 44 45 46 47 48 49 50
000
ASUS45 KTFX 271704
RWRMT
MONTANA HOURLY WEATHER ROUNDUP
NATIONAL WEATHER SERVICE GREAT FALLS MT
1104 AM MDT FRI MAR 27 2015

NOTE: "FAIR" INDICATES FEW OR NO CLOUDS BELOW 12000 FEET WITH NO
SIGNIFICANT WEATHER AND/OR OBSTRUCTIONS TO VISIBILITY.

* THESE STATIONS ARE NOT UNDER NWS QUALITY CONTROL. THEY DO NOT
   REPORT WEATHER SUCH AS PRECIPITATION OR FOG.

MTZ001>007-043-271800-
WEST OF THE DIVIDE
CITY           SKY/WX    TMP DP  RH WIND       PRES   REMARKS
KALISPELL      SUNNY     46  41  83 N6        30.16S
MISSOULA       PTCLDY    43  39  86 CALM      30.20F
BUTTE          PTCLDY    48  36  63 CALM      30.20F
MULLAN PASS    SUNNY     48  37  66 VRB3      30.18S
* ESSEX        N/A       40  38  93 NE2        N/A
* LINCOLN      N/A       42  37  83 W1         N/A
* LOOKOUT PASS N/A       47  46  96 SE4        N/A
* POLSON       N/A       48  44  86 N2         N/A
* RONAN APT    SUNNY     48  43  83 W5         N/A
* SEELEY LAKE  N/A       44  37  76 S3         N/A
* THOMP F APT  SUNNY     46  32  58 SE5        N/A
$$

MTZ008-052>055-271800-
SOUTHWEST MONTANA
CITY           SKY/WX    TMP DP  RH WIND       PRES   REMARKS
BOZEMAN        PTCLDY    57  37  47 N3        30.18F
DILLON         SUNNY     55  32  42 S10       30.20F
* W YELLOWSTON SUNNY     42  33  71 NE2        N/A
* THREE FORKS  SUNNY     55  43  64 N/A        N/A
* TWIN BRIDGES SUNNY     52  34  50 S6         N/A
* BOULDER HILL N/A       55  31  40 S8G14      N/A
* HOMESTAKE PS N/A       51  31  46 W6         N/A
* MONIDA PASS  N/A       45  33  63 SE19G24    N/A
* RAYNOLDS PAS N/A       39  11  31 SE17       N/A   WCI  30
* WHITEHALL    N/A       56  37  49 SW9G17     N/A
* WISE RIVER   N/A       40  34  79 W4G9       N/A
$$

MTZ009>010-012-014-046-048-049-054-271800-
EAST SLOPES AND CENTRAL MONTANA
CITY           SKY/WX    TMP DP  RH WIND       PRES   REMARKS
CUT BANK       CLOUDY    59  34  39 W30G37    30.01F
GREAT FALLS    PTCLDY    64  28  26 SW21      30.04F
HELENA         PTSUNNY   61  36  39 E7        30.15S
MALMSTROM AFB  PTCLDY    64  32  30 W12G21    30.04F
* DEARBORN     N/A       63  35  35 S15G23     N/A
* EAST GLACIER N/A       47  35  63 W29G37     N/A
* MONARCH      N/A       57  24  28 SW14G20    N/A
* PENDROY      N/A       61  23  23 W19G26     N/A
* ROGERS PASS  N/A       45  35  68 E6G24      N/A
* SAINT MARY   N/A       51  32  48 S10G22     N/A
$$

MTZ011-013-016-021-035-040-045-047-050-051-271800-
NORTH CENTRAL MONTANA
CITY           SKY/WX    TMP DP  RH WIND       PRES   REMARKS
HAVRE          PTSUNNY   59  36  42 W5        29.99F
LEWISTOWN      SUNNY     63  34  34 NW9G18    30.06S
* N BAR RANCH  SUNNY     63  27  26 NW17G24   30.06F
* MALTA APT    PTSUNNY   57  39  51 W10G16     N/A
* CHESTER      N/A       59  35  41 W12G19     N/A
* DENTON       N/A       64  33  31 W12        N/A
* GEYSER       N/A       64  28  26 W21G30     N/A
* JUDITH GAP   N/A       61  31  32 NE4G9      N/A
* LOMA         N/A       59  32  36 SW6        N/A
$$

MTZ017>020-022>027-061-062-271800-
NORTHEAST MONTANA
CITY           SKY/WX    TMP DP  RH WIND       PRES   REMARKS
GLASGOW        PTSUNNY   52  37  57 W8        29.97S
GLENDIVE       PTCLDY    57  37  47 NW16      29.97S
JORDAN         CLOUDY    61  39  44 W12       29.98F
SIDNEY         PTCLDY    57  34  42 W14       29.93S
WOLF POINT     PTCLDY    57  39  51 SW9       29.95F
* BEAVER HILL  N/A       51  38  61 W15        N/A
* CIRCLE       N/A       55  41  59 W11        N/A
* LINDSAY DVD  N/A       54  37  53 W12G18     N/A
* NAVAJO       N/A       46  35  66 NW13       N/A
* SACO         N/A       53  39  59 SW7        N/A
$$

MTZ028>042-056>058-271800-
SOUTHCENTRAL AND SOUTHEAST MONTANA
CITY           SKY/WX    TMP DP  RH WIND       PRES   REMARKS
BAKER          CLOUDY    54  37  53 NW13      29.99R
BILLINGS       PTCLDY    61  37  41 SW14      30.06F
LIVINGSTON     PTSUNNY   61  32  34 SW21G32   30.15F
MILES CITY     PTCLDY    63  39  41 NW14G22   29.99F
* LAUREL APT   PTCLDY    59  36  42 S11        N/A
* ROUNDUP APT  SUNNY     64  32  30 W13G21     N/A
* ALZADA       N/A       59  39  48 W17        N/A
* HYSHAM       N/A       58  35  42 W4G9       N/A
* LAME DEER    N/A       56  36  47 W13G22     N/A
* REED POINT   N/A       67  35  31 W17G22     N/A
* ROSCOE HILL  N/A       67   8  10 SW8G15     N/A
$$

REGIONAL REPORTS...DAKOTAS
CITY           SKY/WX    TMP DP  RH WIND       PRES   REMARKS
WILLISTON      CLOUDY    46  36  68 W8        29.92S
DICKINSON      PTCLDY    55  37  51 NW15      29.90F
CROSBY         SUNNY     46  36  68 W14       29.89F
WATFORD CITY   SUNNY     46  36  68 W14       29.90F
BISMARCK       CLOUDY    30  25  82 S14       30.02F WCI  19
GRAND FORKS    CLOUDY    28  12  51 S13       30.16F WCI  17
FARGO          CLOUDY    30  10  43 S14       30.18F WCI  19
BUFFALO SD     CLOUDY    57  39  51 NW24G30   29.90F
RAPID CITY     SUNNY     59  37  44 NW10      29.98F
$$

REGIONAL REPORTS...WYOMING/IDAHO/WASHINGTON
CITY           SKY/WX    TMP DP  RH WIND       PRES   REMARKS
GILLETTE       PTCLDY    59  37  44 NW23G32   30.06F
SHERIDAN       SUNNY     64  34  33 N20G25    30.08S
CODY           SUNNY     61  28  29 W20G29    30.15S
YELLOWSTONE LA SUNNY     37  30  76 VRB6      30.36S WCI  32
SALMON         SUNNY     46  36  68 CALM      30.26F
MULLAN PASS    SUNNY     48  37  66 VRB3      30.18S
SAND POINT     PTCLDY    45  45 100 SE5       30.15F
SPOKANE        FOG       45  45 100 E7        30.10F VSB M1/4

$$




USA.gov is the U.S. government's official web portal to all federal, state and local government web resources and services.